Temp_Advection
nan nan nan nan nan nan nan nan nan nan nan nan nan nan nan nan nan nan nan nan nan nan nan nan nan nan nan nan nan nan nan nan nan nan nan nan nan nan nan nan nan nan nan nan nan
nan -0 -0 -0 -0 -0 -0 -0 -0 -1 -0 -0 -0 -0 -0 -0 -0 -1 -1 -0 0 0 -0 -1 -1 -1 -0 -0 0 0 -0 -0 -0 -0 -0 -0 -0 -1 -1 -0 0 0 0 0 nan
nan -0 -0 0 -0 -0 -0 -0 -0 -0 -0 -0 -0 -0 -0 0 -0 -0 0 0 0 -0 -0 -0 -0 -0 -0 -0 -0 -0 -0 -0 -0 0 -0 -0 -0 -0 -0 -0 -0 0 -0 1 nan
nan -0 -0 0 -0 -0 -0 -0 -0 -0 -1 -1 -0 -0 -0 -0 -0 0 0 0 0 -0 -0 -0 -0 -0 -0 -0 0 -0 -1 -0 -1 -1 -0 -0 -1 -0 -1 -0 -0 0 0 1 nan
nan -0 -0 -0 -0 -0 -0 -0 -0 -0 -0 -0 -0 -0 -0 -0 -0 0 -0 -0 0 -0 -0 0 0 0 0 -0 -0 -0 -0 -1 -0 -1 -1 1 0 -1 -1 -1 -1 -0 1 -0 nan
nan -0 -0 -0 -0 -0 -0 -0 -0 -0 -0 -0 -0 -0 -1 -0 0 -0 -0 -0 -0 0 -0 0 0 0 0 0 -0 -0 -0 -0 -1 -1 -1 -0 0 -1 -1 -0 -0 0 -0 0 nan
nan -0 -0 -0 -0 -0 -0 -0 -0 -0 -0 -0 -0 -0 -0 0 -0 -0 -0 0 -0 0 -0 -0 0 0 0 0 -0 0 0 -0 -1 -0 -0 -1 0 -0 -1 -1 -1 -0 0 1 nan
nan -0 -0 -0 -0 -0 0 -0 -0 -0 -0 -0 -0 -0 -0 0 0 -0 -0 -0 -0 -0 -0 -0 0 0 0 0 0 -0 0 -0 -0 -0 -0 1 -1 -1 -1 -1 -0 0 0 0 nan
nan -0 -1 -1 -1 -0 -0 -0 -0 -0 -0 -0 -0 -0 -0 -0 -0 -0 -0 -1 -1 -0 -0 -0 0 0 0 0 0 0 0 0 -1 -0 0 0 -1 -1 -1 0 -0 -0 0 0 nan
nan -0 -0 -1 -1 -1 -1 -0 -0 -0 -0 -0 -1 -0 -0 -0 -0 -0 -0 0 -0 -0 -0 -0 -0 -0 0 0 0 0 0 -0 -0 -0 -0 -0 -1 -1 0 1 0 0 -0 0 nan
nan -0 -0 -0 -1 -1 -1 -1 -1 -0 -2 -0 -0 -0 -0 -1 -0 -0 -0 -1 -1 -1 -0 -0 0 0 -0 -0 -0 0 0 -0 -1 -0 0 -0 -1 -1 0 1 0 -0 -0 0 nan
nan -1 -0 -0 -0 -0 -1 -2 -1 -0 -0 0 -0 -0 -0 -0 -0 -0 -0 -1 -0 -0 0 0 0 -0 -0 0 -0 0 0 -0 -0 -0 0 0 -1 0 0 0 -0 -0 -0 -1 nan
nan -0 -0 -0 -0 -0 -1 -1 -0 -0 -0 -0 -0 -0 -0 0 -0 -0 -0 -0 -0 -0 -0 0 -0 -0 -0 -0 0 0 0 0 -0 -0 -0 -0 0 -0 0 -0 -0 0 1 0 nan
nan -1 -0 -0 -0 -0 -0 -0 -0 -0 0 -1 -0 -0 -0 -0 -0 -0 -0 -0 -0 -0 -0 -0 -0 -0 -0 -0 0 0 -0 -0 0 -0 -0 -0 0 0 0 -0 -0 0 2 2 nan
nan -0 -0 -0 -0 -0 0 0 -0 -0 0 -0 -0 -0 -1 -0 -0 -1 -0 -0 0 -0 -0 -0 0 -0 -0 0 -0 -0 -0 0 0 0 -0 -0 -0 -0 0 -0 -0 -0 1 1 nan
nan -0 -0 -0 -0 0 0 0 -0 -0 -0 -0 -0 -0 -1 -0 -0 -1 -1 -2 0 -0 0 -0 -1 0 -0 -0 -0 -0 -0 -0 0 -0 0 -0 0 -0 -0 -0 -1 -1 -0 1 nan
nan -0 -0 -0 -0 0 0 -0 -0 0 -0 -0 -0 -0 -0 -0 -0 -1 -0 -1 -0 -0 -0 -1 -0 -0 0 -0 -0 -0 -0 -0 -0 0 -0 0 -0 -0 -0 -0 -0 -0 -0 1 nan
nan 0 -0 -0 0 0 1 -1 0 -0 -0 -0 0 -0 -0 -0 -0 -0 -1 0 -0 -0 0 -0 -1 -0 0 0 -0 -0 0 -0 0 0 -0 0 -0 -0 -0 0 0 0 0 0 nan
nan 0 -0 0 0 0 -0 -1 0 -0 -0 -0 -0 -0 -0 -0 -0 -0 -0 -0 0 0 -0 -0 -1 -0 -0 0 -0 -0 -0 0 0 0 0 -0 -0 0 -0 -0 -0 -0 0 0 nan
nan 0 -0 0 -0 0 -1 -0 -0 -0 0 -0 -0 -0 0 -0 -1 -1 -0 -0 -0 0 -0 -0 -0 -0 -0 -0 -0 -0 -0 -0 -0 0 -0 0 -0 -0 -0 -1 -0 -0 -0 1 nan
nan -0 0 -0 -0 -1 -0 0 -0 -0 0 -0 -0 -0 0 0 -0 -0 -0 -0 0 0 0 -0 -0 -1 -0 -0 -0 -0 -0 -0 -0 -0 0 -0 -0 0 -0 -0 -0 -0 0 0 nan
nan -0 -0 0 -1 -1 -0 -0 -0 0 -0 0 -0 -0 0 0 0 -0 -0 -0 0 -0 0 0 0 -0 -1 -0 -0 -0 -0 -0 -0 -0 -0 -0 -0 -0 0 0 0 0 0 0 nan
nan -0 -0 0 -1 -0 -0 0 -0 -0 0 0 0 -0 0 0 0 -0 -0 -0 0 0 0 0 0 -0 -1 -0 -0 -0 -0 0 0 -0 -0 0 0 -0 -0 -0 -0 -0 0 0 nan
nan -0 -0 -1 -1 -0 0 0 -0 -0 0 0 0 -0 -0 -0 0 -0 -0 -0 -0 0 -0 -0 0 0 -0 -0 -0 0 -0 -0 -0 -0 0 -0 -0 0 -0 -0 -0 -0 0 0 nan
nan -0 0 0 -0 -0 -0 0 0 0 0 0 -0 0 -0 -0 -0 -0 -0 -0 -0 -0 -1 -0 -0 -0 -1 -0 -0 0 0 -0 -0 -0 -0 0 0 -0 0 0 -0 -0 0 0 nan
nan -0 0 -0 -0 -0 0 -0 -0 0 0 0 0 0 -0 0 -0 -0 -0 -0 0 0 -0 -0 -0 0 -0 -0 -1 -0 -0 -0 0 -0 -0 -0 0 0 0 -0 -0 -0 -0 0 nan
nan nan nan nan nan nan nan nan nan nan nan nan nan nan nan nan nan nan nan nan nan nan nan nan nan nan nan nan nan nan nan nan nan nan nan nan nan nan nan nan nan nan nan nan nan
Wind_Speed
20 20 21 21 22 22 22 22 23 25 26 26 24 23 18 15 11 10 17 14 12 15 16 15 10 10 5 2 7 10 5 7 4 1 5 6 4 1 4 5 8 11 6 8 30
20 20 21 22 23 23 23 24 25 26 26 25 24 18 13 7 9 17 13 11 11 17 19 22 20 18 5 2 3 5 6 2 5 3 4 9 7 13 8 7 4 7 11 16 33
22 22 23 23 23 23 22 24 26 26 26 26 19 12 15 5 4 8 11 10 12 16 17 17 13 11 4 3 3 5 15 5 3 3 9 8 12 11 9 4 1 9 14 26 36
22 22 23 24 24 24 24 25 27 27 26 18 13 16 8 4 3 8 11 11 14 17 16 14 12 5 1 3 6 5 8 17 18 22 15 8 15 9 15 14 18 29 18 31 39
23 23 24 25 25 24 24 26 27 26 18 15 17 10 7 11 7 8 10 13 14 17 13 11 7 2 3 4 4 6 9 18 21 18 22 21 19 12 23 26 26 24 16 32 33
24 25 26 26 26 24 26 27 26 17 20 14 11 13 11 8 12 12 13 14 14 16 15 11 6 8 10 5 4 8 11 18 22 24 18 16 20 16 7 9 16 8 23 32 35
25 26 26 27 27 27 28 28 24 13 13 11 10 18 23 13 17 14 13 15 14 15 17 15 13 8 4 4 14 12 10 10 17 15 12 19 17 20 23 22 20 11 19 27 30
27 28 28 28 28 27 29 27 18 9 13 13 9 6 5 18 18 12 19 21 18 19 14 13 10 14 11 11 5 4 4 10 9 6 11 16 20 20 21 20 18 16 19 24 27
27 28 29 28 28 26 28 23 9 7 2 16 5 4 4 15 16 18 25 31 23 12 11 10 7 6 2 4 6 4 9 6 9 7 9 11 15 18 23 25 22 22 23 21 27
29 29 28 27 27 26 29 16 8 14 5 2 15 2 14 21 14 21 27 32 10 12 5 4 2 0 2 3 7 4 6 5 7 4 4 8 15 14 15 24 24 26 26 22 26
28 29 28 26 25 26 30 16 8 2 19 8 6 3 16 25 7 24 34 25 11 8 4 5 2 5 9 10 12 12 12 15 15 13 10 14 15 16 16 14 18 25 26 24 25
27 27 25 23 20 24 25 19 10 4 2 12 9 7 19 21 10 24 33 16 7 6 9 2 7 7 7 9 11 13 14 13 8 10 2 10 16 9 5 5 16 23 28 27 25
26 27 24 21 15 24 23 20 11 2 1 6 8 8 16 16 6 21 29 15 3 4 9 6 7 9 9 13 13 10 10 13 9 3 10 11 8 5 3 4 2 19 27 28 26
25 25 23 20 11 22 19 20 9 3 4 9 8 6 17 17 1 20 23 7 5 4 6 7 6 6 14 15 9 4 6 12 12 7 3 6 4 2 1 7 2 3 17 24 18
25 23 20 16 16 19 20 16 5 1 4 11 7 9 15 13 10 19 19 7 1 5 3 5 5 9 11 8 2 6 6 5 6 6 3 6 4 3 4 4 4 5 11 19 24
25 21 17 15 16 19 19 13 1 5 3 6 7 8 10 8 10 17 14 19 2 4 3 7 12 3 3 11 6 10 5 2 2 2 3 4 3 3 4 4 5 8 14 13 20
25 21 16 14 19 19 18 6 5 6 3 7 5 7 5 5 7 10 7 9 11 9 7 8 5 4 2 7 4 5 3 3 4 4 1 6 5 3 6 7 4 5 10 13 18
26 20 13 11 16 17 15 5 8 1 3 3 4 7 5 9 5 8 7 6 3 4 5 6 8 7 6 2 4 5 3 2 1 2 2 6 4 4 5 7 8 12 12 12 16
28 21 9 11 15 14 5 6 5 5 3 6 6 4 4 3 1 7 4 4 3 5 4 4 6 6 3 2 2 6 3 2 2 1 3 1 3 2 5 6 9 10 13 14 13
25 19 3 12 13 9 5 3 2 3 1 2 2 5 4 6 7 6 3 4 7 5 1 4 7 3 7 4 1 2 5 3 3 3 3 2 2 2 6 8 3 5 11 14 15
20 8 5 13 11 5 4 3 2 2 1 2 1 3 3 3 1 3 3 4 4 7 7 3 1 8 4 6 5 6 4 4 0 2 1 1 2 1 3 5 5 5 6 7 8
11 4 9 9 4 4 2 4 0 0 0 0 1 4 2 2 2 2 3 5 11 7 9 2 3 4 5 4 3 3 5 4 2 5 2 0 2 4 4 3 1 4 4 4 5
7 6 5 7 2 2 1 1 0 0 1 1 2 2 1 2 3 3 2 2 11 5 7 4 2 5 9 5 4 5 7 3 2 2 2 3 3 3 4 4 6 4 4 4 4
2 2 4 5 4 5 3 1 1 1 1 1 2 1 3 3 2 4 4 3 17 4 13 3 1 3 4 5 4 6 8 9 1 3 1 1 2 6 7 5 3 3 2 1 3
3 1 1 2 2 4 2 2 2 1 1 1 2 2 3 3 4 3 3 5 4 6 8 3 1 2 7 9 4 4 5 7 5 1 3 2 2 3 3 1 1 2 3 3 3
6 6 4 3 5 4 2 4 6 2 4 2 3 3 5 4 6 5 4 1 3 5 3 4 2 3 4 5 5 3 6 6 2 3 3 1 3 2 2 3 2 2 1 2 3
10 9 6 5 4 4 4 5 6 6 4 5 6 2 2 7 9 16 15 14 10 5 2 3 2 5 4 6 6 4 2 3 3 1 1 2 2 2 3 5 3 2 1 1 1
Wind_Direction
20 18 15 11 5 0 355 352 349 345 343 342 343 343 348 1 38 60 51 41 23 357 357 352 350 5 306 291 213 215 243 256 279 90 273 335 330 355 285 190 181 206 189 191 177
18 15 12 8 4 360 354 351 346 343 340 338 340 340 351 8 79 62 47 28 11 5 10 12 9 4 17 359 241 217 236 222 212 235 286 324 354 339 355 330 250 222 216 182 182
14 11 10 5 3 359 353 349 345 342 337 335 344 358 342 339 94 41 33 7 9 4 357 355 358 7 49 345 282 269 250 274 263 280 335 308 310 330 352 290 194 325 251 185 185
13 8 7 3 3 359 353 350 345 341 339 350 10 347 360 55 104 34 11 8 355 347 347 347 343 14 12 239 238 292 296 288 286 296 315 316 310 282 275 262 294 308 281 193 189
10 5 3 1 1 359 354 350 346 346 360 3 358 23 95 77 57 2 346 339 341 343 346 348 327 279 211 230 286 247 272 275 287 296 283 284 288 288 279 285 293 304 220 194 189
7 3 1 359 358 359 355 352 348 353 357 11 47 70 81 80 21 6 344 340 339 332 330 322 307 301 277 241 205 259 286 287 288 285 273 272 257 272 283 300 310 293 194 193 190
4 1 358 357 357 358 355 352 346 359 18 32 95 90 62 36 6 349 335 335 330 320 308 302 299 257 253 270 263 268 288 277 269 267 269 262 252 237 268 276 281 246 213 192 185
3 359 356 356 355 356 356 351 343 8 53 48 93 91 86 16 4 12 356 341 325 318 305 307 286 269 246 264 302 310 260 273 285 222 248 223 259 252 241 243 236 217 218 198 189
4 358 355 353 352 354 357 354 3 20 0 39 62 68 31 349 13 4 356 343 330 349 326 303 285 227 222 256 277 206 275 250 295 214 247 214 250 260 235 225 223 209 212 180 179
359 357 352 351 352 354 359 1 78 45 6 39 29 25 8 344 2 357 343 348 357 351 21 44 72 51 173 230 264 256 267 261 253 290 4 300 260 247 202 207 219 212 198 176 178
353 355 351 351 352 355 357 20 17 37 49 54 7 22 334 343 355 1 356 352 9 45 29 348 301 239 254 234 245 263 258 266 270 260 289 267 267 248 231 202 212 207 196 166 169
352 351 351 350 352 356 358 40 30 325 331 37 24 358 350 345 328 359 355 3 20 10 351 303 261 241 281 267 263 250 263 275 280 273 244 271 278 226 179 201 204 192 184 156 165
350 349 351 349 352 355 7 22 17 49 9 22 24 354 346 337 322 356 357 345 358 335 335 282 262 301 280 288 265 234 259 275 265 298 249 260 262 211 158 77 241 204 192 184 179
349 347 349 354 355 354 4 359 8 50 76 339 350 7 350 346 301 8 359 352 339 319 317 269 277 284 316 303 260 265 225 249 267 261 264 179 165 38 116 44 345 135 162 165 167
349 347 348 357 350 354 346 345 357 94 20 328 324 328 349 34 316 345 5 359 315 288 307 270 294 327 334 336 321 250 308 266 251 280 313 346 72 331 130 52 40 72 140 143 168
351 347 346 347 350 346 342 342 15 41 284 340 341 351 358 3 354 343 1 20 282 330 259 262 285 268 288 306 268 299 292 329 285 318 32 334 38 26 24 8 338 49 70 130 154
352 346 342 344 346 342 339 335 26 86 351 347 337 342 338 321 333 13 350 9 35 357 358 324 296 302 309 329 330 354 10 341 2 22 308 324 72 27 1 2 336 346 73 113 138
351 343 336 340 343 340 338 36 58 314 303 319 323 316 2 1 357 341 359 11 13 26 319 350 329 2 344 9 310 321 8 128 356 359 297 1 33 13 359 15 82 109 111 120 133
342 340 335 343 346 344 344 45 197 210 254 325 324 14 333 13 335 2 17 338 356 354 2 337 283 311 289 315 351 334 359 284 292 216 56 54 72 23 16 49 47 83 109 113 123
339 337 356 352 344 346 68 160 212 208 330 58 38 38 323 326 3 29 357 298 337 348 267 299 296 283 303 356 336 229 308 13 5 14 57 40 77 45 357 357 44 53 79 114 117
338 336 343 344 339 27 108 198 226 233 327 131 189 303 289 295 94 322 277 294 346 325 355 310 229 297 1 22 335 340 7 4 176 6 116 21 56 183 322 308 327 61 84 99 116
334 333 320 336 12 43 115 180 293 271 16 327 208 221 254 302 299 274 248 225 8 341 348 293 294 287 261 277 284 8 358 359 22 329 42 18 29 31 5 329 273 73 71 101 132
336 297 334 350 96 345 298 62 268 2 253 274 274 217 311 280 342 228 288 288 342 14 345 339 313 338 346 8 26 32 351 326 248 65 3 96 291 52 27 83 67 79 70 99 121
19 356 358 42 83 130 138 168 286 257 266 270 277 15 359 326 237 291 306 308 338 353 351 339 294 158 210 268 324 316 337 339 317 77 232 237 305 352 6 0 36 80 104 103 112
138 158 174 289 341 100 103 185 139 236 197 250 296 208 147 303 305 267 273 311 316 9 8 74 320 9 269 269 272 280 322 343 38 321 102 231 146 329 340 286 138 176 120 114 132
174 157 175 158 145 117 336 239 184 215 148 219 168 176 174 212 199 262 314 353 259 343 43 357 299 332 291 358 354 285 350 338 39 9 71 33 44 264 6 77 128 179 162 90 100
200 182 152 175 138 110 218 198 204 158 213 214 196 127 254 249 273 273 271 270 260 298 297 69 35 355 283 351 341 348 295 325 313 295 286 67 317 319 29 47 31 19 21 82 207
Height
1543 1540 1538 1535 1532 1529 1526 1523 1520 1517 1514 1511 1510 1506 1504 1501 1500 1499 1497 1502 1502 1499 1497 1495 1494 1494 1494 1496 1498 1499 1501 1492 1493 1490 1486 1480 1479 1476 1476 1474 1474 1475 1474 1474 1478
1543 1541 1538 1535 1532 1529 1526 1523 1519 1516 1512 1509 1507 1505 1503 1501 1501 1499 1504 1503 1502 1499 1497 1494 1493 1493 1496 1497 1498 1497 1493 1491 1488 1486 1484 1483 1482 1479 1476 1475 1475 1473 1474 1474 1476
1544 1541 1539 1535 1532 1529 1525 1522 1518 1514 1511 1507 1505 1503 1502 1500 1501 1504 1503 1504 1502 1500 1499 1497 1496 1496 1497 1498 1498 1493 1485 1486 1486 1485 1485 1483 1481 1480 1478 1474 1473 1476 1475 1472 1474
1545 1542 1539 1535 1532 1528 1524 1520 1516 1512 1508 1505 1504 1501 1499 1500 1507 1506 1504 1503 1502 1500 1498 1497 1495 1496 1497 1497 1495 1496 1491 1491 1486 1485 1485 1484 1482 1477 1476 1474 1471 1471 1471 1471 1471
1545 1542 1539 1535 1532 1528 1524 1519 1515 1510 1506 1504 1502 1500 1500 1502 1507 1506 1504 1502 1501 1499 1498 1497 1496 1495 1496 1493 1493 1493 1489 1487 1485 1484 1482 1481 1478 1478 1468 1469 1468 1466 1465 1467 1471
1546 1542 1539 1535 1531 1527 1523 1518 1512 1509 1506 1503 1502 1502 1502 1505 1507 1505 1503 1501 1499 1497 1496 1495 1495 1494 1493 1492 1492 1488 1487 1483 1481 1478 1478 1477 1474 1478 1466 1466 1466 1464 1465 1466 1467
1546 1542 1538 1535 1531 1527 1522 1517 1511 1509 1506 1503 1503 1503 1505 1510 1507 1504 1501 1499 1497 1495 1493 1492 1493 1493 1491 1490 1486 1486 1486 1479 1471 1473 1474 1472 1464 1461 1469 1467 1465 1465 1464 1465 1464
1547 1542 1538 1534 1530 1526 1521 1516 1511 1510 1508 1505 1504 1504 1506 1507 1506 1503 1500 1496 1493 1490 1489 1489 1489 1489 1489 1488 1486 1487 1485 1479 1463 1466 1464 1467 1460 1452 1461 1463 1461 1462 1463 1464 1463
1547 1542 1538 1533 1529 1525 1521 1515 1511 1510 1508 1507 1506 1505 1508 1507 1503 1502 1498 1492 1487 1485 1485 1485 1485 1486 1487 1487 1486 1484 1479 1481 1470 1463 1461 1463 1456 1451 1454 1457 1457 1457 1460 1463 1463
1548 1543 1538 1533 1529 1524 1520 1516 1513 1511 1509 1508 1508 1511 1510 1509 1505 1502 1498 1490 1485 1483 1484 1484 1485 1486 1487 1487 1484 1484 1482 1477 1474 1465 1462 1462 1455 1449 1447 1451 1453 1454 1456 1460 1462
1547 1543 1538 1533 1528 1524 1520 1516 1516 1514 1512 1516 1517 1517 1515 1511 1506 1503 1495 1488 1486 1485 1489 1486 1488 1490 1484 1483 1478 1476 1476 1472 1464 1460 1461 1458 1452 1444 1446 1447 1448 1450 1452 1458 1463
1547 1542 1537 1532 1528 1525 1521 1518 1522 1522 1519 1518 1517 1517 1514 1512 1507 1504 1498 1493 1492 1492 1489 1487 1488 1481 1480 1477 1474 1471 1469 1464 1459 1455 1456 1452 1449 1441 1442 1445 1444 1444 1449 1456 1461
1545 1541 1537 1533 1528 1524 1521 1522 1521 1521 1521 1519 1518 1516 1514 1513 1509 1506 1502 1496 1494 1490 1491 1491 1481 1477 1476 1468 1466 1464 1463 1461 1459 1452 1450 1449 1446 1444 1441 1441 1443 1444 1446 1451 1460
1543 1539 1536 1533 1530 1525 1521 1521 1521 1520 1529 1525 1518 1518 1516 1510 1510 1509 1503 1501 1496 1495 1491 1487 1479 1478 1473 1464 1460 1464 1456 1454 1452 1451 1442 1441 1443 1445 1439 1444 1445 1448 1448 1454 1460
1543 1538 1536 1532 1532 1528 1526 1521 1520 1522 1546 1526 1523 1520 1517 1518 1516 1510 1506 1498 1499 1497 1497 1485 1480 1477 1470 1467 1465 1461 1454 1450 1451 1445 1443 1437 1442 1454 1448 1454 1452 1453 1455 1458 1464
1542 1539 1535 1533 1530 1528 1523 1521 1521 1533 1551 1531 1527 1524 1519 1517 1516 1512 1508 1502 1499 1497 1494 1488 1479 1477 1473 1466 1463 1459 1453 1451 1450 1453 1448 1449 1444 1456 1457 1466 1459 1460 1462 1462 1465
1542 1538 1535 1532 1530 1527 1524 1522 1533 1542 1537 1536 1536 1531 1530 1525 1520 1519 1517 1517 1517 1517 1513 1492 1480 1474 1472 1466 1461 1459 1459 1484 1465 1474 1455 1453 1450 1468 1468 1469 1468 1467 1467 1467 1468
1541 1537 1535 1532 1530 1527 1525 1525 1545 1544 1548 1539 1536 1533 1533 1531 1526 1526 1524 1525 1522 1521 1517 1514 1499 1479 1472 1473 1469 1463 1462 1474 1471 1465 1460 1448 1467 1475 1472 1471 1469 1470 1470 1471 1472
1540 1537 1533 1532 1530 1527 1526 1552 1555 1556 1546 1543 1537 1536 1537 1533 1536 1532 1539 1532 1526 1524 1528 1522 1500 1479 1475 1473 1474 1465 1462 1462 1459 1468 1467 1467 1475 1478 1476 1475 1474 1474 1474 1475 1477
1538 1534 1533 1532 1529 1527 1530 1546 1545 1543 1543 1544 1548 1544 1544 1539 1539 1543 1546 1532 1529 1526 1525 1518 1512 1483 1477 1473 1472 1472 1469 1467 1467 1460 1462 1464 1467 1477 1482 1481 1479 1478 1479 1480 1482
1537 1534 1533 1531 1529 1528 1547 1547 1544 1544 1544 1546 1548 1547 1544 1549 1553 1548 1547 1533 1529 1525 1523 1521 1519 1494 1483 1485 1483 1474 1473 1470 1476 1472 1475 1460 1472 1488 1489 1488 1485 1484 1484 1484 1486
1537 1537 1532 1531 1533 1539 1546 1543 1544 1544 1545 1545 1546 1545 1544 1543 1555 1546 1547 1536 1530 1528 1525 1522 1519 1520 1493 1485 1486 1485 1485 1485 1478 1480 1488 1481 1479 1489 1489 1488 1487 1486 1486 1487 1488
1535 1535 1534 1533 1545 1549 1544 1544 1544 1544 1546 1546 1546 1545 1544 1545 1552 1543 1535 1531 1530 1528 1527 1525 1526 1529 1503 1493 1488 1497 1489 1491 1492 1497 1501 1496 1485 1489 1489 1489 1489 1488 1488 1489 1490
1534 1537 1536 1534 1538 1540 1544 1543 1546 1544 1545 1546 1546 1545 1546 1545 1543 1544 1536 1531 1529 1529 1526 1524 1523 1524 1526 1509 1505 1502 1497 1493 1496 1495 1504 1502 1490 1490 1490 1488 1490 1490 1490 1490 1490
1534 1536 1537 1542 1540 1541 1543 1543 1544 1545 1544 1545 1546 1545 1550 1550 1549 1546 1537 1532 1529 1529 1527 1529 1528 1527 1517 1511 1506 1500 1502 1501 1504 1497 1497 1499 1502 1494 1495 1494 1493 1493 1492 1492 1492
1529 1534 1537 1537 1538 1540 1542 1545 1541 1543 1542 1544 1547 1544 1546 1550 1546 1549 1537 1536 1535 1530 1532 1532 1532 1526 1524 1507 1511 1502 1503 1501 1501 1499 1494 1498 1496 1495 1494 1494 1495 1495 1494 1495 1495
1525 1530 1533 1537 1537 1541 1538 1537 1537 1538 1539 1537 1539 1543 1544 1540 1538 1536 1536 1534 1533 1532 1532 1539 1542 1530 1528 1516 1522 1515 1514 1509 1502 1505 1503 1500 1498 1496 1495 1494 1495 1495 1495 1495 1497